Home > Weather > Ny-Ålesund > Past weeks

Flag for Norway Past Weather in Ny-Ålesund, Svalbard, Norway — Yesterday and Last 2 Weeks

Now
44 °F

Low clouds.


Feels Like: 44 °F
Forecast: 35 / 39 °F
Wind: 1 mph from Southeast

Location: Ny Alesund

Current Time: Jun 30, 2016 at 9:30:36 PM

Latest Report: Jun 30, 2016 at 8:00 PM


Visibility: 47 mi

Pressure: 29.98 "Hg

Humidity: 72%

Dew Point: 36 °F

Location of Ny-ÅlesundLocation

Past Weather in Ny-Ålesund — Graph

°F

Ny-Ålesund Temperature Yesterday

Maximum temperature yesterday: 48 °F (at 12:00 PM)
Minimum temperature yesterday: 38 °F (at 12:00 AM)
Average temperature yesterday: 44 °F

High & Low Weather Summary for the Past Weeks

 TemperatureHumidityPressure
High48 °F (Jun 29, 12:00 PM)89% (Jun 28, 6:00 AM)30.02 "Hg (Jun 28, 6:00 AM)
Low36 °F (Jun 19, 8:00 AM)56% (Jun 20, 3:00 PM)29.63 "Hg (Jun 23, 5:00 AM)
Average41 °F75%29.81 "Hg
* Reported Jun 15 8:00 PM — Jun 30 8:00 PM, Ny-Ålesund, Weather by CustomWeather, © 2016

Note: Actual official high and low records may vary slightly from our data, if they occured in-between our weather recording intervals... More about our weather records

Advertising

Ny-Ålesund Weather History for the Previous 24 Hours

Scroll right to see more
 ConditionsComfort  
Time TempWeatherWind HumidityBarometerVisibility
8:00 PM
Thu, Jun 30
44 °FLow clouds.1 mph72%29.98 "Hg47 mi
7:00 PM46 °FCool.1 mph68%29.98 "HgN/A
6:00 PM46 °FCool.2 mph68%29.98 "HgN/A
5:00 PM46 °FCool.1 mph67%29.99 "HgN/A
4:00 PM46 °FCool.2 mph67%29.99 "HgN/A
3:00 PM46 °FCool.1 mph63%30.00 "HgN/A
2:00 PM45 °FOvercast.1 mph67%30.00 "Hg37 mi
1:00 PM44 °FQuite cool.3 mphN/A30.00 "HgN/A
12:00 PM44 °FQuite cool.2 mph72%30.00 "HgN/A
11:00 AM46 °FCool.1 mph70%30.00 "HgN/A
10:00 AM43 °FQuite cool.3 mph74%30.00 "HgN/A
9:00 AM43 °FQuite cool.5 mph75%30.00 "HgN/A
8:00 AM44 °FOvercast.5 mph73%30.00 "Hg31 mi
7:00 AM44 °FQuite cool.2 mph72%30.00 "HgN/A
6:00 AM44 °FQuite cool.1 mph70%30.00 "HgN/A
5:00 AM45 °FQuite cool.2 mph70%30.00 "HgN/A
4:00 AM44 °FQuite cool.1 mph71%30.01 "HgN/A
3:00 AM43 °FQuite cool.2 mph74%30.00 "HgN/A
2:00 AM43 °FQuite cool.2 mph76%30.00 "HgN/A
1:00 AM44 °FQuite cool.1 mph71%30.01 "HgN/A
12:00 AM43 °FQuite cool.1 mph75%30.01 "HgN/A
11:00 PM
Wed, Jun 29
44 °FQuite cool.2 mph73%30.01 "HgN/A
10:00 PM43 °FQuite cool.1 mph73%30.01 "HgN/A
9:00 PM44 °FQuite cool.3 mph73%30.01 "HgN/A
Weather by CustomWeather, © 2016

See weather overviewHow to use our weather pages